{"data":{"norad_id":59283,"intl_designator":"2024-052D","name":"YUNHAI-2 02D","alt_names":[],"object_type":"PAYLOAD","status":"ACTIVE","operator":null,"country":"PRC","launch_date":"2024-03-21","launch_site_code":"JSC","launch_vehicle":null,"mission":null,"orbit_class":"UNKNOWN","rcs_meters":null,"size_class":null,"mass_kg":null,"dimensions":null,"purposes":[],"wikipedia_slug":null,"has_3d_model":false,"image_url":null,"decayed_at":null,"tle_current":{"epoch":"2026-09-22T22:23:12.636960Z","epoch_age_seconds":50724,"freshness":"FRESH","line1":"1 59283U 24052D   26265.93278515 -.00000015  00000+0  58477-4 0  9992","line2":"2 59283  50.0066 208.0984 0004425 207.7500 152.3179 14.28024402132363","mean_motion":14.28024402,"eccentricity":0.0004425,"inclination_deg":50.0066,"raan_deg":208.0984,"arg_perigee_deg":207.75,"mean_anomaly_deg":152.3179,"bstar":5.8477e-5,"rev_number":13236,"period_min":100.83861298051,"perigee_km":795.16647148982,"apogee_km":801.517655461,"semimajor_km":7176.4790634754,"source":"CELESTRAK","updated_at":"2026-09-23T09:00:19.284525Z"}}}